Location: Newark
(13.8117°N, 3.6025°W)
Time: 14:12:55
(UTC+00:00)

Explorer 11/Cluster Stage 4 - Pass Details

Date: 28 August 2019
Orbit: 467 x 1260 km, 28.8° (Epoch: 21 September)

Event Time Altitude Azimuth Distance (km) Brightness Sun altitude
Rises 10:25:18 0° 295° (WNW) 3,906 9.9 62.7°
Reaches altitude 10° 10:28:32 10° 307° (NW) 3,050 9.5 63.5°
Maximum altitude 10:34:49 26° 1° (N) 2,200 9.2 65.0°
Drops below altitude 10° 10:41:27 10° 55° (NE) 3,230 10.1 66.6°
Sets 10:44:58 0° 67° (ENE) 4,180 10.6 67.4°
